Location: Puketoi
(40.5833°S, 176.0167°E)
Time: 00:28:38
(UTC+00:00)

COSMOS 2455 - Pass Details

Date: 06 October 2023
Orbit: 902 x 907 km, 67.1° (Epoch: 03 December)

Event Time Altitude Azimuth Distance (km) Brightness Sun altitude
Exits shadow 09:43:18 53° 223° (SW) 1,112 3.5 -34.1°
Drops below altitude 10° 09:48:53 10° 159° (SSE) 2,615 5.5 -34.8°
Sets 09:51:29 0° 154° (SSE) 3,561 6.2 -35.1°
